Wink, TX

7:57 AM CST on January 17, 2017 (GMT -0600)
Winkler County

Weather History for KINK - April, 2013

Change the Weather History Date:

Friday, April 26, 2013

  Actual Average Record
Temperature  
Mean Temperature 69 °F -  
Max Temperature 91 °F 84 °F 100 °F (1959)
Min Temperature 48 °F 52 °F 39 °F (1980)
Cooling Degree Days 4    
Growing Degree Days 19 (Base 50)    
Moisture  
Dew Point 27 °F    
Average Humidity 35    
Maximum Humidity 80    
Minimum Humidity 4    
Precipitation  
Precipitation 0.00 in - - ()
Sea Level Pressure  
Sea Level Pressure 29.91 in    
Wind  
Wind Speed 13 mph (SSW)    
Max Wind Speed 29 mph    
Max Gust Speed 39 mph    
Visibility 10 miles    
Events      
Averages and records for this station are not official NWS values.
T = Trace of Precipitation, MM = Missing Value Source: NWS Daily Summary

Daily Weather History Graph

Daily Weather History Graph

Search for Another Location

Airport or City:

Trip Planner

Search our weather history database for the weather conditions in past years. The results will help you decide how hot, cold, wet, or windy it might be!

Date:

Astronomy

Apr. 26, 2013 Rise Set
Actual Time 7:11 AM CDT 8:29 PM CDT
Civil Twilight 6:46 AM CDT 8:55 PM CDT
Nautical Twilight 6:15 AM CDT 9:25 PM CDT
Astronomical Twilight 5:44 AM CDT 9:57 PM CDT
Moon 9:49 PM CDT (4/26) 7:44 AM CDT (4/26)
Length of Visible Light 14h 09m
Length of Day
13h 17m
Full, 99% of the Moon is Illuminated
Apr 26
Full
May 2
Last Quarter
May 9
New
May 17
First Quarter
May 24
Full

Hourly Weather History & Observations

Time (CDT) Temp. Dew Point Humidity Pressure Visibility Wind Dir Wind Speed Gust Speed Precip Events Conditions
12:53 AM 57.9 °F 44.1 °F 60% 29.87 in 10.0 mi SE 28.8 mph 39.1 mph N/A   Clear
1:53 AM 57.2 °F 44.6 °F 63% 29.98 in 10.0 mi SSE 18.4 mph 27.6 mph N/A   Clear
2:53 AM 55.9 °F 44.1 °F 64% 29.90 in 10.0 mi SE 13.8 mph - N/A   Clear
3:53 AM 55.0 °F 44.1 °F 67% 29.88 in 10.0 mi SSE 13.8 mph - N/A   Clear
4:53 AM 53.1 °F 44.1 °F 71% 29.89 in 10.0 mi SSE 11.5 mph - N/A   Clear
5:53 AM 51.1 °F 44.1 °F 77% 29.91 in 10.0 mi SE 6.9 mph - N/A   Clear
6:53 AM 48.9 °F 43.0 °F 80% 29.92 in 10.0 mi SE 5.8 mph - N/A   Clear
7:53 AM 50.0 °F 44.1 °F 80% 29.95 in 10.0 mi ESE 3.5 mph - N/A   Clear
8:53 AM 55.0 °F 45.0 °F 69% 29.97 in 10.0 mi ESE 5.8 mph - N/A   Clear
9:53 AM 60.1 °F 45.0 °F 57% 29.99 in 10.0 mi Calm Calm - N/A   Clear
10:53 AM 69.1 °F 43.0 °F 39% 29.99 in 10.0 mi Calm Calm - N/A   Clear
11:53 AM 78.1 °F 37.0 °F 23% 29.97 in 10.0 mi West 9.2 mph - N/A   Clear
12:53 PM 82.0 °F 28.0 °F 14% 29.95 in 10.0 mi West 11.5 mph 19.6 mph N/A   Clear
1:53 PM 84.9 °F 19.0 °F 9% 29.92 in 10.0 mi West 10.4 mph 21.9 mph N/A   Clear
2:53 PM 87.1 °F 17.1 °F 8% 29.90 in 10.0 mi Calm Calm - N/A   Clear
3:53 PM 90.0 °F 10.9 °F 5% 29.86 in 10.0 mi WSW 15.0 mph 21.9 mph N/A   Clear
4:53 PM 90.0 °F 10.9 °F 5% 29.86 in 10.0 mi North 8.1 mph 18.4 mph N/A   Clear
5:53 PM 90.0 °F 3.0 °F 4% 29.84 in 10.0 mi WSW 9.2 mph 21.9 mph N/A   Clear
6:53 PM 89.1 °F -2.0 °F 4% 29.85 in 10.0 mi West 11.5 mph 19.6 mph N/A   Clear
7:53 PM 86.0 °F -0.9 °F 4% 29.86 in 10.0 mi WSW 11.5 mph - N/A   Clear
8:53 PM 77.0 °F 1.9 °F 5% 29.88 in 10.0 mi WSW 8.1 mph - N/A   Clear
9:53 PM 68.0 °F 3.9 °F 8% 29.91 in 10.0 mi West 8.1 mph - N/A   Clear
10:53 PM 64.0 °F 5.0 °F 10% 29.93 in 10.0 mi NW 8.1 mph - N/A   Clear
11:53 PM 66.9 °F 17.1 °F 15% 29.94 in 10.0 mi NNE 25.3 mph 35.7 mph N/A   Clear